Regional Weather Roundup
Issued by NWS State College, PA

Home | Current Version | Previous Version | Text Only | Print | Product List | Glossary On
Versions: 1 2 3 4 5 6 7 8 9 10 11 12 13 14 15 16 17 18 19 20 21 22 23 24 25 26 27 28 29 30 31 32 33 34 35 36 37 38 39 40 41 42 43 44 45 46 47 48 49 50
000
ASUS41 KCTP 192110
RWRCTP

REGIONAL WEATHER ROUNDUP
NATIONAL WEATHER SERVICE STATE COLLEGE PA
400 PM EST MON FEB 19 2018

Note: "fair" indicates few or no clouds below 12,000 feet with no
significant weather and/or obstructions to visibility.

* = STATION THAT DOES NOT REPORT PRECIPITATION /E.G. RAIN...SNOW...ETC/
    THUNDER OR FOG.

PAZ002>004-007>009-013>016-020>023-029>032-192200-
WESTERN PENNSYLVANIA

CITY           SKY/WX    TMP DP  RH WIND       PRES   REMARKS
ERIE           LGT RAIN  54  50  86 S15G30    30.02F FOG
MEADVILLE      RAIN      50  50 100 S9        30.08S FOG
FRANKLIN*      LGT RAIN  49  48  97 S10       30.12R
NEW CASTLE     LGT RAIN  53  53 100 SE3       30.11S
BEAVER COUNTY  DRIZZLE   55  55 100 SW7       30.12R
BUTLER*        LGT RAIN  56  53  90 CALM      30.13R
PITTSBURGH INT CLOUDY    63  55  75 SW6       30.12R
PITTSBURGH     FAIR      61  55  81 S3        30.12R
INDIANA*       CLOUDY    52  52 100 S6        30.18S
LATROBE        PTSUNNY   55  55 100 CALM      30.14S
WASHINGTON CO* PTSUNNY   69  56  62 SW15G28   30.14S
$$

PAZ004>006-010>012-017>019-024>028-033>037-041-042-045-046-049>053-192200-
CENTRAL PENNSYLVANIA

CITY           SKY/WX    TMP DP  RH WIND       PRES   REMARKS
BRADFORD       LGT RAIN  43  43 100 S5        30.12R FOG
DUBOIS         CLOUDY    46  44  93 S6        30.14R FOG
CLEARFIELD     LGT RAIN  38  37  97 N7        30.19R FOG
JOHNSTOWN      LGT RAIN  48  45  89 S7        30.17S
ALTOONA        CLOUDY    40  38  93 CALM      30.23F FOG
STATE COLLEGE  DRIZZLE   39  39 100 SW7       30.23F
WILLIAMSPORT   LGT RAIN  40  37  89 VRB6      30.27F
SELINSGROVE    LGT RAIN  40  38  93 SW3       30.30F FOG
FT INDIANTOWN  CLOUDY    39  39 100 NE3       30.33F FOG
CAPITAL CITY   CLOUDY    44  42  93 E7        30.32F FOG
HARRISBURG     CLOUDY    43  41  93 SE7       30.32F
YORK           CLOUDY    46  45  96 VRB3      30.31F
$$

PAZ038>040-043-044-047-048-054-055-060>062-067>071-192200-
EASTERN PENNSYLVANIA

CITY           SKY/WX    TMP DP  RH WIND       PRES   REMARKS
SCRANTON       LGT RAIN  40  37  89 SW8G17    30.28F
MOUNT POCONO   LGT RAIN  34  34 100 SE10G17   30.27F
ALLENTOWN      LGT RAIN  40  37  89 CALM      30.36S FOG
QUAKERTOWN*    CLOUDY    41  41 100 CALM      30.35F FOG
READING        LGT RAIN  40  40 100 SE6       30.34F FOG
LANCASTER      LGT RAIN  41  41 100 SE5       30.34F VSB 3/4
COATESVILLE    FOG       41 N/A N/A S5        30.36F VSB 3/4
POTTSTOWN      LGT RAIN  41  40  96 CALM      30.37F FOG
BLUE BELL      CLOUDY    43  43 100 CALM      30.37F
DOYLESTOWN     LGT RAIN  43  42  97 CALM      30.35F
WILLOW GROVE   NOT AVBL
NORTH PHILA    LGT RAIN  49  45  86 CALM      30.38F FOG
PHILADELPHIA   CLOUDY    48  42  80 W6        30.38S
$$




USA.gov is the U.S. government's official web portal to all federal, state and local government web resources and services.